Skip Page Navigation
NASA JPL Caltech
NASA Logo - Jet Propulsion Laboratory + View the NASA Portal
+ Center for Near-Earth Object Studies
JPL Home Earth Solar System Stars & Galaxies Technology
JPL Solar System Dynamics
BODIES ORBITS EPHEMERIDES TOOLS PHYSICAL DATA DISCOVERY FAQ SITE MAP

Significant website upgrade scheduled for September 27. More details available here.

JPL Small-Body Database Browser
Search: [ help ]  
17378 (1981 EM5)
Classification: Main-belt Asteroid          SPK-ID: 2017378
Ephemeris | Orbit Diagram | Orbital Elements | Mission Design | Physical Parameters | Discovery Circumstances | Close-Approach Data ]

[ show orbit diagram ]
Orbital Elements at Epoch 2459396.5 (2021-Jul-01.0) TDB
Reference: JPL 22 (heliocentric ecliptic J2000)
 Element Value Uncertainty (1-sigma)   Units 
e .04549936080797313 3.8811e-08  
a 3.099005358221182 2.2489e-08 au
q 2.958002595281634 1.1606e-07 au
i 8.153083250926619 4.3695e-06 deg
node 271.8279693306143 3.9087e-05 deg
peri 183.9816204637883 7.7494e-05 deg
M 229.9810421375548 6.9063e-05 deg
tp 2460116.174471500335
(2023-Jun-20.67447150)
0.00038591 TDB
period 1992.654102136548
5.46
2.1691e-05
5.939e-08
d
yr
n .1806635680593053 1.9666e-09 deg/d
Q 3.240008121160729 2.3512e-08 au
  Orbit Determination Parameters
   # obs. used (total)      948  
   data-arc span      14790 days (40.49 yr)  
   first obs. used      1981-02-09  
   last obs. used      2021-08-08  
   planetary ephem.      DE441  
   SB-pert. ephem.      SB441-N16  
   condition code      0  
   norm. resid. RMS      .54481  
   source      ORB  
   producer      Otto Matic  
   solution date      2021-Aug-24 21:56:24  

Additional Information
 Earth MOID = 1.97495 au 
 Jupiter MOID = 1.90973 au 
 T_jup = 3.205 
[ hide covariance matrix ]
Orbital Elements at Epoch 2456987.5 (2014-Nov-26.0) TDB
Reference: JPL 22 (heliocentric ecliptic J2000)
 Element Value Uncertainty (1-sigma)   Units 
e .0501193690562293 3.899e-08  
q 2.936073483551994 1.1812e-07 au
tp 2456132.472740485749
(2012-Jul-23.97274049)
0.00033156 TDB
node 271.9449925057319 3.8929e-05 deg
peri 182.2920312644193 7.2005e-05 deg
i 8.178044147354075 4.3781e-06 deg
  Orbit Determination Parameters
   # obs. used (total)      948  
   data-arc span      14790 days (40.49 yr)  
   first obs. used      1981-02-09  
   last obs. used      2021-08-08  
   planetary ephem.      DE441  
   SB-pert. ephem.      SB441-N16  
   condition code      0  
   norm. resid. RMS      .54481  
   source      ORB  
   producer      Otto Matic  
   solution date      2021-Aug-24 21:56:24  

Additional Information
 Jupiter MOID = 1.90973 au 
 T_jup = 3.205 
Orbit Covariance (6×6)
  e q tp node peri i
e 1.520250976837841E-15 -4.539479131037163E-15 3.109774418662848E-12 1.692337198615543E-15 5.701869524725206E-13 2.205424483287312E-16
q -4.539479131037163E-15 1.395217927680221E-14 -7.127264525393875E-12 -2.526343826917173E-18 -1.28883079106849E-12 -7.09686726474432E-16
tp 3.109774418662848E-12 -7.127264525393875E-12 1.099338196397211E-7 -8.784017537351308E-12 2.01363141231991E-8 7.918292516724173E-13
node 1.692337198615543E-15 -2.526343826917173E-18 -8.784017537351308E-12 1.515461740650429E-9 -1.500795667427654E-9 3.20009551634901E-11
peri 5.701869524725206E-13 -1.28883079106849E-12 2.01363141231991E-8 -1.500795667427654E-9 5.184756821597394E-9 -3.155705044561318E-11
i 2.205424483287312E-16 -7.09686726474432E-16 7.918292516724173E-13 3.20009551634901E-11 -3.155705044561318E-11 1.916741497025525E-11

Ephemeris | Orbit Diagram | Orbital Elements | Mission Design | Physical Parameters | Discovery Circumstances | Close-Approach Data ]

Physical Parameter Table
Parameter Symbol Value Units Sigma Reference Notes
absolute magnitude H 14.01   n/a MPO636325  
diameter diameter 6.867 km 0.307 urn:nasa:pds:neowise_diameters_albedos::2.0[mainbelt] (http://adsabs.harvard.edu/abs/2011ApJ...741...68M)  
rotation period rot_per 18.4114 h n/a LCDB (Rev. 2020-October); Warner et al., 2009 Result based on less than full coverage, so that the period may be wrong by 30 percent or so.
Published Reference List:
[Pal, A.; Szakats, R.; Kiss, C.; Bodi, A.; et al. (2019) Ap. J. Supl. Ser. 247, id.26.]
geometric albedo albedo 0.113   0.027 urn:nasa:pds:neowise_diameters_albedos::2.0[mainbelt] (http://adsabs.harvard.edu/abs/2011ApJ...741...68M)  

17378 (1981 EM5)          Discovered 1981-Mar-02 by Bus, S. J. at Siding Spring
Reference: 20001013/Numbers.arcLast Updated: 2004-04-19

[ show close-approach data ]
Ephemeris | Orbit Diagram | Orbital Elements | Mission Design | Physical Parameters | Discovery Circumstances | Close-Approach Data ]
ABOUT SSD CREDITS/AWARDS PRIVACY/COPYRIGHT GLOSSARY LINKS
FirstGov 2021-Sep-21 15:58 UT
(server date/time)  
NASA Home Page
Site Manager:   Ryan S. Park
Webmaster  Alan B. Chamberlin